TimePDT,TemperatureF,Dew PointF,Humidity,Sea Level PressureIn,VisibilityMPH,Wind Direction,Wind SpeedMPH,Gust SpeedMPH,PrecipitationIn,Events,Conditions,WindDirDegrees,DateUTC
12:53 AM,46.9,44.1,90,29.88,9.0,South,3.5,-,N/A,,Overcast,190,2013-04-24 07:53:00
1:53 AM,46.9,44.1,90,29.87,8.0,Calm,Calm,-,N/A,,Overcast,0,2013-04-24 08:53:00
3:53 AM,46.0,44.1,93,29.84,6.0,Calm,Calm,-,N/A,,Overcast,0,2013-04-24 10:53:00
4:50 AM,46.4,44.6,93,29.84,5.0,Calm,Calm,-,N/A,,Overcast,0,2013-04-24 11:50:00
4:53 AM,46.0,44.1,93,29.83,6.0,Calm,Calm,-,N/A,,Overcast,0,2013-04-24 11:53:00
5:49 AM,44.6,44.6,100,29.85,1.8,Calm,Calm,-,N/A,,Overcast,0,2013-04-24 12:49:00
5:53 AM,45.0,44.1,97,29.83,1.5,Calm,Calm,-,N/A,,Overcast,0,2013-04-24 12:53:00
6:11 AM,44.6,44.6,100,29.85,2.5,Calm,Calm,-,N/A,,Overcast,0,2013-04-24 13:11:00
6:40 AM,44.6,44.6,100,29.85,0.8,Calm,Calm,-,N/A,,Overcast,0,2013-04-24 13:40:00
6:53 AM,45.0,44.1,97,29.83,0.8,Calm,Calm,-,N/A,,Mist,0,2013-04-24 13:53:00
7:53 AM,46.0,44.1,93,29.86,0.8,Variable,3.5,-,N/A,,Overcast,0,2013-04-24 14:53:00
8:00 AM,46.4,44.6,93,29.88,1.0,SSW,3.5,-,N/A,,Overcast,210,2013-04-24 15:00:00
8:53 AM,46.9,43.0,86,29.87,1.5,South,5.8,-,N/A,,Overcast,180,2013-04-24 15:53:00
9:03 AM,46.4,44.6,93,29.89,1.5,SSE,3.5,-,N/A,,Overcast,160,2013-04-24 16:03:00
9:45 AM,51.8,44.6,76,29.89,1.5,SSE,6.9,-,N/A,,Overcast,160,2013-04-24 16:45:00
9:53 AM,51.1,45.0,80,29.88,7.0,SE,6.9,-,N/A,,Mostly Cloudy,140,2013-04-24 16:53:00
9:58 AM,53.6,46.4,77,29.89,7.0,SSE,8.1,-,N/A,,Scattered Clouds,160,2013-04-24 16:58:00
10:53 AM,57.9,46.9,67,29.88,8.0,SE,9.2,-,N/A,,Clear,130,2013-04-24 17:53:00
11:53 AM,62.1,46.9,58,29.87,9.0,SSE,10.4,-,N/A,,Clear,160,2013-04-24 18:53:00
12:53 PM,61.0,48.0,62,29.88,9.0,South,13.8,20.7,N/A,,Partly Cloudy,170,2013-04-24 19:53:00
1:53 PM,61.0,46.0,58,29.87,9.0,SSE,11.5,-,N/A,,Partly Cloudy,160,2013-04-24 20:53:00
2:53 PM,63.0,48.0,58,29.87,9.0,South,11.5,-,N/A,,Clear,170,2013-04-24 21:53:00
3:53 PM,61.0,46.9,60,29.86,8.0,South,13.8,20.7,N/A,,Clear,180,2013-04-24 22:53:00
4:53 PM,59.0,46.0,62,29.86,9.0,South,13.8,-,N/A,,Partly Cloudy,180,2013-04-24 23:53:00
5:53 PM,57.0,45.0,64,29.87,8.0,SSW,9.2,-,N/A,,Partly Cloudy,200,2013-04-25 00:53:00
6:53 PM,53.1,44.1,71,29.88,8.0,South,11.5,-,N/A,,Scattered Clouds,190,2013-04-25 01:53:00
7:53 PM,51.1,44.1,77,29.90,8.0,South,6.9,-,N/A,,Clear,190,2013-04-25 02:53:00
8:53 PM,50.0,44.1,80,29.92,9.0,South,5.8,-,N/A,,Mostly Cloudy,180,2013-04-25 03:53:00
9:53 PM,50.0,44.1,80,29.93,9.0,South,4.6,-,N/A,,Overcast,190,2013-04-25 04:53:00
10:53 PM,50.0,44.1,80,29.94,9.0,Calm,Calm,-,N/A,,Overcast,0,2013-04-25 05:53:00
11:53 PM,50.0,44.1,80,29.95,9.0,SW,4.6,-,N/A,,Overcast,220,2013-04-25 06:53:00